SITRO-AIS-24

operational
NORAD ID: 61741 Int'l Des: 2024-199 Owner: SITRO Country: RU
LEOCIRCULARRETROGRADE

About SITRO-AIS-24

Description loading...

Live Position

Loading 3D Globe...

Upcoming Passes

Altitude History

Altitude vs Time

uPlot chart will show altitude changes over time

Two-Line Element Set

1 61741U 24199G 26062.13049523 .00003961 00000-0 36164-3 0 9999
2 61741 97.3335 266.9944 0014066 64.1099 296.1571 14.95515612116038
Epoch: Mar 3, 2026 • Age: 10 hours

Current Status

Altitude 584.3 km
Velocity 7.57 km/s
Sub-Earth Point 42.12°N, 140.21°E
Launch Date Nov 4, 2024
Age 1.3 years
Type other

Technical Details

Classification Payload
Mass 3.00 kg
Dry Mass 3.00 kg
Total Mass 3.00 kg
Length 0.30 m
Diameter 0.10 m
Span 0.30 m
Shape Box
Manufacturer SPUT
Bus Type Cubesat 3U
Phase Status In Orbit
Owner/State SITRO/RU

Large Constellations

Loading constellations...